{"data":{"norad_id":65451,"epoch":"2026-05-25T03:42:15.342336Z","epoch_age_seconds":57611,"freshness":"FRESH","line1":"1 65451U 25194T   26145.15434424  .00001525  00000+0  10973-3 0  9992","line2":"2 65451  97.4504 359.3829 0002151  86.0738 274.0735 15.05652170 41153","mean_motion":15.0565217,"eccentricity":0.0002151,"inclination_deg":97.4504,"raan_deg":359.3829,"arg_perigee_deg":86.0738,"mean_anomaly_deg":274.0735,"bstar":0.00010973,"rev_number":4115,"period_min":95.639619076164,"perigee_km":548.01436210107,"apogee_km":550.99463347342,"semimajor_km":6927.6414977872,"source":"CELESTRAK","updated_at":"2026-05-25T13:38:20.809559Z"}}